Location: Malvern Link
(52.1333°N, 2.3000°W)
Time: 15:41:44
(UTC+00:00)

SO-50 - Pass Details

Date: 05 July 2022
Orbit: 585 x 698 km, 64.6° (Epoch: 11 August)

Event Time Altitude Azimuth Distance (km) Brightness Sun altitude
Exits shadow 00:17:45 16° 223° (SW) 1,706 ? -15.1°
Maximum altitude 00:21:32 88° 312° (NW) 683 ? -15.0°
Drops below altitude 10° 00:26:27 10° 43° (NE) 2,146 ? -15.0°
Sets 00:28:49 0° 44° (NE) 3,076 ? -15.0°
